THY6BP LTFM-UBBB

Flight info

Callsign THY6BP
Flight time 1h 9m
Altitude 33000
Route VICEN1D/35L VICEN UT380 ASMAP UL333 LATGA UT363 GURBU UL615 ERZ UN161 INDUR DCT PEMAN T919 TELLI N449 GOTUB T447 INSAN
Aircraft A321/M-SDE3FGHIRWY/LB1

Departure

Time 2026-05-04 21:23
Airport İstanbul Airport (LTFM)

Arrival

Time 2026-05-04 22:33
Airport Heydar Aliyev International Airport (UBBB)
Time Latitude Longitude Altitude Speed Heading
2026-05-04 20:52 41.26495 28.73502 329 ft 0 kts 71°
2026-05-04 21:13 41.26489 28.73480 330 ft 4 kts 71°
2026-05-04 21:14 41.26482 28.73452 329 ft 4 kts 62°
2026-05-04 21:14 41.26466 28.73427 330 ft 4 kts 20°
2026-05-04 21:14 41.26441 28.73425 330 ft 4 kts 342°
2026-05-04 21:14 41.26421 28.73434 329 ft 1 kts 341°
2026-05-04 21:18 41.26429 28.73431 330 ft 3 kts 341°
2026-05-04 21:18 41.26453 28.73420 329 ft 4 kts 341°
2026-05-04 21:18 41.26483 28.73406 331 ft 5 kts 341°
2026-05-04 21:19 41.26518 28.73390 333 ft 6 kts 341°
2026-05-04 21:19 41.26558 28.73371 333 ft 7 kts 341°
2026-05-04 21:19 41.26590 28.73342 333 ft 6 kts 306°
2026-05-04 21:19 41.26599 28.73293 332 ft 5 kts 271°
2026-05-04 21:20 41.26599 28.73244 334 ft 6 kts 270°
2026-05-04 21:20 41.26599 28.73203 334 ft 3 kts 269°
2026-05-04 21:20 41.26598 28.73165 330 ft 5 kts 269°
2026-05-04 21:20 41.26597 28.73106 331 ft 7 kts 269°
2026-05-04 21:21 41.26596 28.73028 334 ft 11 kts 269°
2026-05-04 21:21 41.26595 28.72923 334 ft 12 kts 269°
2026-05-04 21:21 41.26594 28.72809 334 ft 13 kts 269°
2026-05-04 21:21 41.26592 28.72685 334 ft 14 kts 269°
2026-05-04 21:22 41.26591 28.72572 334 ft 9 kts 269°
2026-05-04 21:22 41.26612 28.72525 332 ft 8 kts 339°
2026-05-04 21:22 41.26805 28.72511 334 ft 60 kts 359°
2026-05-04 21:22 41.27444 28.72496 333 ft 122 kts 359°
2026-05-04 21:23 41.28467 28.72473 333 ft 170 kts 359°
2026-05-04 21:23 41.29681 28.72452 850 ft 173 kts 358°
2026-05-04 21:23 41.30887 28.72439 1544 ft 174 kts 358°
2026-05-04 21:23 41.32164 28.72446 1742 ft 195 kts 359°
2026-05-04 21:24 41.33595 28.72463 1894 ft 217 kts
2026-05-04 21:24 41.35189 28.72486 2166 ft 238 kts
2026-05-04 21:24 41.36861 28.72389 2835 ft 242 kts 347°
2026-05-04 21:24 41.38293 28.71201 3539 ft 253 kts 312°
2026-05-04 21:25 41.38959 28.68997 4242 ft 267 kts 282°
2026-05-04 21:25 41.38956 28.66486 4958 ft 275 kts 270°
2026-05-04 21:25 41.38720 28.63929 5634 ft 280 kts 268°
2026-05-04 21:25 41.38457 28.61342 6336 ft 283 kts 270°
2026-05-04 21:26 41.38028 28.58760 6966 ft 295 kts 250°
2026-05-04 21:26 41.36785 28.56535 7569 ft 309 kts 221°
2026-05-04 21:26 41.34860 28.55236 8172 ft 315 kts 190°
2026-05-04 21:26 41.32678 28.55197 8762 ft 316 kts 172°
2026-05-04 21:27 41.30474 28.55375 9402 ft 320 kts 175°
2026-05-04 21:27 41.28241 28.55460 10050 ft 322 kts 173°
2026-05-04 21:27 41.26006 28.55933 10374 ft 333 kts 160°
2026-05-04 21:27 41.23823 28.57141 10510 ft 347 kts 145°
2026-05-04 21:28 41.21879 28.59110 10636 ft 359 kts 130°
2026-05-04 21:28 41.20063 28.61503 10815 ft 374 kts 130°
2026-05-04 21:28 41.18194 28.63944 11290 ft 380 kts 131°
2026-05-04 21:28 41.16306 28.66374 11826 ft 384 kts 131°
2026-05-04 21:29 41.14611 28.69124 12417 ft 377 kts 114°
2026-05-04 21:29 41.13650 28.72256 12971 ft 368 kts 97°
2026-05-04 21:29 41.13359 28.75605 13527 ft 365 kts 88°
2026-05-04 21:29 41.13204 28.78985 14064 ft 368 kts 88°
2026-05-04 21:30 41.13047 28.82383 14581 ft 371 kts 89°
2026-05-04 21:30 41.12682 28.85811 15073 ft 377 kts 94°
2026-05-04 21:30 41.12238 28.89248 15569 ft 380 kts 94°
2026-05-04 21:30 41.11786 28.92710 16071 ft 382 kts 94°
2026-05-04 21:31 41.10873 28.99695 17119 ft 387 kts 94°
2026-05-04 21:31 41.10415 29.03226 17625 ft 390 kts 94°
2026-05-04 21:31 41.09951 29.06790 18112 ft 392 kts 94°
2026-05-04 21:32 41.09486 29.10362 18577 ft 395 kts 93°
2026-05-04 21:32 41.09017 29.13955 18996 ft 397 kts 93°
2026-05-04 21:32 41.08538 29.17579 19416 ft 400 kts 93°
2026-05-04 21:32 41.08055 29.21220 19840 ft 402 kts 93°
2026-05-04 21:33 41.07569 29.24878 20273 ft 404 kts 93°
2026-05-04 21:33 41.07079 29.28563 20656 ft 408 kts 94°
2026-05-04 21:33 41.06584 29.32285 21026 ft 411 kts 94°
2026-05-04 21:33 41.06086 29.36021 21426 ft 413 kts 94°
2026-05-04 21:34 41.05588 29.39737 21812 ft 415 kts 94°
2026-05-04 21:34 41.05080 29.43516 22205 ft 417 kts 94°
2026-05-04 21:34 41.04571 29.47311 22594 ft 418 kts 93°
2026-05-04 21:34 41.04060 29.51115 22984 ft 420 kts 93°
2026-05-04 21:35 41.03543 29.54938 23358 ft 422 kts 93°
2026-05-04 21:35 41.03022 29.58771 23755 ft 423 kts 93°
2026-05-04 21:35 41.02498 29.62621 24086 ft 425 kts 93°
2026-05-04 21:35 41.01973 29.66477 24391 ft 426 kts 93°
2026-05-04 21:36 41.01444 29.70352 24678 ft 429 kts 93°
2026-05-04 21:36 41.00909 29.74244 24979 ft 431 kts 93°
2026-05-04 21:36 41.00371 29.78154 25270 ft 433 kts 94°
2026-05-04 21:36 40.99833 29.82072 25547 ft 434 kts 94°
2026-05-04 21:37 40.99288 29.86017 25824 ft 436 kts 94°
2026-05-04 21:37 40.98741 29.89970 26141 ft 438 kts 94°
2026-05-04 21:37 40.98192 29.93941 26447 ft 439 kts 94°
2026-05-04 21:37 40.97638 29.97925 26712 ft 441 kts 94°
2026-05-04 21:38 40.97081 30.01925 26985 ft 443 kts 94°
2026-05-04 21:38 40.96519 30.05953 27257 ft 445 kts 94°
2026-05-04 21:38 40.95953 30.09988 27512 ft 447 kts 94°
2026-05-04 21:38 40.95385 30.14037 27772 ft 449 kts 94°
2026-05-04 21:39 40.94816 30.18067 28032 ft 451 kts 94°
2026-05-04 21:39 40.94238 30.22140 28442 ft 450 kts 93°
2026-05-04 21:39 40.93661 30.26206 28852 ft 449 kts 93°
2026-05-04 21:39 40.93083 30.30257 29242 ft 448 kts 93°
2026-05-04 21:40 40.92502 30.34307 29605 ft 447 kts 93°
2026-05-04 21:40 40.91923 30.38340 29974 ft 446 kts 93°
2026-05-04 21:40 40.91344 30.42371 30294 ft 446 kts 93°
2026-05-04 21:40 40.90762 30.46395 30590 ft 446 kts 93°
2026-05-04 21:41 40.90179 30.50421 30870 ft 445 kts 93°
2026-05-04 21:41 40.89598 30.54443 31155 ft 445 kts 94°
2026-05-04 21:41 40.89018 30.58463 31412 ft 445 kts 94°
2026-05-04 21:41 40.88441 30.62475 31658 ft 444 kts 94°
2026-05-04 21:42 40.87864 30.66482 31911 ft 444 kts 94°
2026-05-04 21:42 40.87283 30.70486 32165 ft 444 kts 94°
2026-05-04 21:42 40.86705 30.74437 32426 ft 443 kts 94°
2026-05-04 21:42 40.86119 30.78432 32694 ft 443 kts 94°
2026-05-04 21:43 40.85530 30.82421 32943 ft 443 kts 94°
2026-05-04 21:43 40.81653 31.08569 32913 ft 442 kts 94°
2026-05-04 21:44 40.77638 31.35115 32885 ft 444 kts 95°
2026-05-04 21:44 40.72787 31.66786 33010 ft 436 kts 95°
2026-05-04 21:45 40.67832 31.98409 33088 ft 438 kts 95°
2026-05-04 21:45 40.65319 32.14254 32975 ft 444 kts 95°
2026-05-04 21:45 40.62821 32.29885 32865 ft 444 kts 96°
2026-05-04 21:46 40.57698 32.61457 33006 ft 438 kts 97°
2026-05-04 21:46 40.52428 32.93309 33005 ft 449 kts 98°
2026-05-04 21:46 40.49746 33.09258 32862 ft 451 kts 99°
2026-05-04 21:47 40.47049 33.25248 32848 ft 451 kts 99°
2026-05-04 21:47 40.41554 33.57298 33027 ft 448 kts 101°
2026-05-04 21:48 40.35979 33.89256 32823 ft 456 kts 101°
2026-05-04 21:48 40.30271 34.21391 32787 ft 451 kts 102°
2026-05-04 21:48 40.27378 34.37440 32922 ft 448 kts 102°
2026-05-04 21:49 40.24475 34.53496 32982 ft 453 kts 102°
2026-05-04 21:49 40.18584 34.85553 32757 ft 458 kts 103°
2026-05-04 21:50 40.12604 35.17647 32806 ft 452 kts 104°
2026-05-04 21:50 40.09572 35.33670 32950 ft 451 kts 104°
2026-05-04 21:50 40.06522 35.49680 32918 ft 455 kts 104°
2026-05-04 21:51 40.00330 35.81749 32733 ft 459 kts 105°
2026-05-04 21:51 39.94077 36.13663 32882 ft 450 kts 105°
2026-05-04 21:52 39.87742 36.45514 33020 ft 454 kts 106°
2026-05-04 21:52 39.84560 36.61486 32875 ft 459 kts 106°
2026-05-04 21:52 39.81342 36.77524 32747 ft 460 kts 106°
2026-05-04 21:52 39.79293 36.93762 32750 ft 460 kts 85°
2026-05-04 21:53 39.80713 37.10319 32909 ft 458 kts 86°
2026-05-04 21:53 39.83321 37.43397 33006 ft 458 kts 86°
2026-05-04 21:54 39.85844 37.76583 32872 ft 464 kts 86°
2026-05-04 21:54 39.88265 38.09877 32747 ft 465 kts 87°
2026-05-04 21:55 39.90649 38.43320 32770 ft 465 kts 88°
2026-05-04 21:55 39.92955 38.76965 32871 ft 461 kts 88°
2026-05-04 21:56 39.94080 39.10595 32993 ft 460 kts 92°
2026-05-04 21:56 39.94577 39.44398 32941 ft 468 kts 92°
2026-05-04 21:56 39.94793 39.61364 32838 ft 472 kts 92°
2026-05-04 21:57 39.95008 39.78361 32763 ft 473 kts 92°
2026-05-04 21:57 39.95329 40.12348 32764 ft 472 kts 93°
2026-05-04 21:58 39.95536 40.46480 32844 ft 469 kts 94°
2026-05-04 21:58 39.95646 40.80686 32989 ft 467 kts 94°
2026-05-04 21:58 39.95670 40.97864 33094 ft 473 kts 94°
2026-05-04 21:59 39.95676 41.15064 33075 ft 471 kts 95°
2026-05-04 21:59 39.97801 41.49552 32929 ft 488 kts 89°
2026-05-04 22:00 40.00324 41.84476 32825 ft 488 kts 89°
2026-05-04 22:00 40.02821 42.19544 32894 ft 482 kts 89°
2026-05-04 22:00 40.04016 42.37081 33070 ft 487 kts 90°
2026-05-04 22:01 40.05165 42.54683 33091 ft 481 kts 90°
2026-05-04 22:01 40.07289 42.90005 32992 ft 493 kts 90°
2026-05-04 22:02 40.09340 43.25569 32818 ft 496 kts 91°
2026-05-04 22:02 40.11300 43.61350 32843 ft 494 kts 91°
2026-05-04 22:02 40.13445 43.79270 32973 ft 501 kts 83°
2026-05-04 22:03 40.16116 43.97343 32979 ft 500 kts 84°
2026-05-04 22:03 40.21249 44.33056 32975 ft 502 kts 84°
2026-05-04 22:04 40.26341 44.69270 32909 ft 508 kts 85°
2026-05-04 22:04 40.31323 45.05616 32757 ft 511 kts 86°
2026-05-04 22:04 40.33796 45.23999 32486 ft 512 kts 86°
2026-05-04 22:05 40.36204 45.42099 32700 ft 512 kts 86°
2026-05-04 22:05 40.37437 45.78219 32741 ft 491 kts 107°
2026-05-04 22:05 40.35382 45.96019 32523 ft 489 kts 107°
2026-05-04 22:06 40.33307 46.13390 32728 ft 493 kts 107°
2026-05-04 22:06 40.31141 46.31209 32573 ft 494 kts 107°
2026-05-04 22:06 40.28988 46.48795 32804 ft 496 kts 108°
2026-05-04 22:07 40.25806 46.74319 32815 ft 496 kts 108°
2026-05-04 22:07 40.24683 46.83240 32835 ft 496 kts 108°
2026-05-04 22:08 40.23564 46.92102 32854 ft 496 kts 108°
2026-05-04 22:08 40.22428 47.01002 32853 ft 496 kts 108°
2026-05-04 22:09 40.21276 47.09910 32855 ft 496 kts 108°
2026-05-04 22:09 40.20117 47.18809 32833 ft 496 kts 108°
2026-05-04 22:10 40.18960 47.27702 32854 ft 496 kts 108°
2026-05-04 22:10 40.17798 47.36589 32861 ft 496 kts 108°
2026-05-04 22:11 40.17038 47.45605 32857 ft 508 kts 96°
2026-05-04 22:11 40.17217 47.54856 32852 ft 509 kts 96°
2026-05-04 22:12 40.17380 47.64121 32866 ft 510 kts 96°
2026-05-04 22:12 40.17527 47.73391 32874 ft 510 kts 96°
2026-05-04 22:12 40.17598 47.78042 32683 ft 510 kts 96°
2026-05-04 22:13 40.17667 47.82671 32418 ft 509 kts 96°
2026-05-04 22:13 40.17732 47.87294 32161 ft 508 kts 96°
2026-05-04 22:13 40.17793 47.91909 31903 ft 507 kts 96°
2026-05-04 22:13 40.17786 47.96493 31328 ft 504 kts 98°
2026-05-04 22:14 40.17659 48.01096 30322 ft 509 kts 100°
2026-05-04 22:14 40.17437 48.05741 29230 ft 514 kts 101°
2026-05-04 22:14 40.17174 48.10372 28769 ft 506 kts 101°
2026-05-04 22:14 40.16920 48.14895 28099 ft 503 kts 101°
2026-05-04 22:15 40.16689 48.19441 27481 ft 500 kts 100°
2026-05-04 22:15 40.16487 48.23964 26847 ft 497 kts 100°
2026-05-04 22:15 40.16304 48.28459 26214 ft 493 kts 99°
2026-05-04 22:15 40.16127 48.32918 25600 ft 488 kts 99°
2026-05-04 22:16 40.15952 48.37322 25053 ft 482 kts 99°
2026-05-04 22:16 40.15772 48.41683 24498 ft 477 kts 99°
2026-05-04 22:16 40.15590 48.45997 23787 ft 475 kts 99°
2026-05-04 22:16 40.15399 48.50303 23070 ft 474 kts 99°
2026-05-04 22:17 40.15206 48.54581 22403 ft 469 kts 99°
2026-05-04 22:17 40.15013 48.58816 21774 ft 464 kts 99°
2026-05-04 22:17 40.14823 48.63000 21158 ft 458 kts 99°
2026-05-04 22:17 40.14637 48.67135 20550 ft 453 kts 99°
2026-05-04 22:18 40.14454 48.71224 19957 ft 448 kts 99°
2026-05-04 22:18 40.14271 48.75278 19368 ft 444 kts 98°
2026-05-04 22:18 40.14084 48.79282 18806 ft 439 kts 98°
2026-05-04 22:18 40.13896 48.83252 18262 ft 435 kts 98°
2026-05-04 22:19 40.13705 48.87171 17690 ft 431 kts 98°
2026-05-04 22:19 40.13516 48.91064 17065 ft 428 kts 98°
2026-05-04 22:19 40.13330 48.94931 16493 ft 424 kts 98°
2026-05-04 22:19 40.13146 48.98765 15952 ft 420 kts 98°
2026-05-04 22:20 40.12961 49.02559 15462 ft 416 kts 98°
2026-05-04 22:20 40.12777 49.06316 14935 ft 412 kts 98°
2026-05-04 22:20 40.12597 49.10043 14414 ft 409 kts 98°
2026-05-04 22:20 40.12421 49.13677 13906 ft 405 kts 98°
2026-05-04 22:21 40.12240 49.17335 13403 ft 400 kts 98°
2026-05-04 22:21 40.12059 49.20937 12912 ft 394 kts 98°
2026-05-04 22:21 40.11890 49.24458 12652 ft 383 kts 96°
2026-05-04 22:21 40.12152 49.27892 12401 ft 379 kts 79°
2026-05-04 22:22 40.12903 49.31132 12265 ft 365 kts 76°
2026-05-04 22:22 40.13643 49.34244 12131 ft 352 kts 76°
2026-05-04 22:22 40.14353 49.37231 12000 ft 335 kts 77°
2026-05-04 22:22 40.15030 49.40083 11673 ft 324 kts 76°
2026-05-04 22:23 40.15686 49.42880 11360 ft 320 kts 77°
2026-05-04 22:23 40.16334 49.45657 11031 ft 318 kts 76°
2026-05-04 22:23 40.16979 49.48415 10679 ft 317 kts 76°
2026-05-04 22:23 40.17623 49.51160 10333 ft 315 kts 76°
2026-05-04 22:24 40.18051 49.52982 10100 ft 314 kts 76°
2026-05-04 22:24 40.18896 49.56590 9637 ft 313 kts 76°
2026-05-04 22:24 40.19530 49.59301 9276 ft 311 kts 76°
2026-05-04 22:24 40.20163 49.61999 8912 ft 310 kts 76°
2026-05-04 22:25 40.20588 49.63814 8684 ft 307 kts 76°
2026-05-04 22:25 40.21213 49.66472 8358 ft 305 kts 76°
2026-05-04 22:25 40.21834 49.69119 8020 ft 303 kts 76°
2026-05-04 22:25 40.22447 49.71752 7666 ft 302 kts 76°
2026-05-04 22:26 40.23054 49.74376 7325 ft 301 kts 76°
2026-05-04 22:26 40.23650 49.76955 6991 ft 300 kts 76°
2026-05-04 22:26 40.24255 49.79566 6656 ft 299 kts 76°
2026-05-04 22:26 40.24858 49.82161 6325 ft 297 kts 76°
2026-05-04 22:27 40.25460 49.84745 5976 ft 296 kts 76°
2026-05-04 22:27 40.26059 49.87319 5622 ft 295 kts 77°
2026-05-04 22:27 40.26654 49.89888 5267 ft 294 kts 77°
2026-05-04 22:27 40.27245 49.92445 4912 ft 293 kts 78°
2026-05-04 22:28 40.27833 49.94998 4555 ft 291 kts 78°
2026-05-04 22:28 40.28407 49.97487 4136 ft 279 kts 77°
2026-05-04 22:28 40.28955 49.99854 3767 ft 265 kts 77°
2026-05-04 22:28 40.29496 50.02080 3408 ft 250 kts 71°
2026-05-04 22:29 40.30393 50.04016 2957 ft 244 kts 49°
2026-05-04 22:29 40.31641 50.05403 2749 ft 227 kts 30°
2026-05-04 22:29 40.33002 50.06196 2518 ft 203 kts 14°
2026-05-04 22:29 40.34317 50.06483 2265 ft 182 kts
2026-05-04 22:30 40.35528 50.06473 2041 ft 171 kts 358°
2026-05-04 22:30 40.36684 50.06457 1821 ft 160 kts 359°
2026-05-04 22:30 40.37750 50.06443 1624 ft 147 kts 359°
2026-05-04 22:30 40.38765 50.06428 1415 ft 143 kts 359°
2026-05-04 22:31 40.39752 50.06413 1224 ft 140 kts 359°
2026-05-04 22:31 40.40729 50.06397 1028 ft 140 kts 359°
2026-05-04 22:31 40.41701 50.06387 835 ft 140 kts 359°
2026-05-04 22:31 40.42678 50.06371 633 ft 141 kts 358°
2026-05-04 22:32 40.43656 50.06357 456 ft 139 kts
2026-05-04 22:32 40.44620 50.06340 260 ft 139 kts
2026-05-04 22:32 40.45594 50.06322 86 ft 140 kts
2026-05-04 22:32 40.46520 50.06310 14 ft 118 kts 360°
2026-05-04 22:33 40.47174 50.06302 10 ft 69 kts 359°
2026-05-04 22:33 40.47464 50.06243 11 ft 27 kts 334°
2026-05-04 22:33 40.47570 50.06151 13 ft 14 kts 309°
2026-05-04 22:33 40.47522 50.06084 16 ft 13 kts 182°
2026-05-04 22:34 40.47431 50.06083 14 ft 14 kts 179°
2026-05-04 22:34 40.47330 50.06085 14 ft 15 kts 179°
2026-05-04 22:34 40.47222 50.06087 14 ft 16 kts 179°
2026-05-04 22:34 40.47108 50.06088 14 ft 15 kts 179°
2026-05-04 22:35 40.47026 50.06089 14 ft 9 kts 179°
2026-05-04 22:35 40.46968 50.06069 14 ft 9 kts 217°
2026-05-04 22:35 40.46947 50.05992 15 ft 10 kts 267°
2026-05-04 22:35 40.46943 50.05900 15 ft 11 kts 266°
2026-05-04 22:36 40.46939 50.05797 15 ft 12 kts 268°
2026-05-04 22:36 40.46936 50.05680 15 ft 13 kts 268°
2026-05-04 22:36 40.46933 50.05553 32 ft 15 kts 268°
2026-05-04 22:36 40.46925 50.05434 15 ft 12 kts 248°
2026-05-04 22:37 40.46863 50.05390 15 ft 9 kts 185°
2026-05-04 22:37 40.46811 50.05386 15 ft 6 kts 198°
2026-05-04 22:37 40.46783 50.05356 15 ft 4 kts 226°
2026-05-04 22:37 40.46769 50.05334 15 ft 2 kts 228°
2026-05-04 22:38 40.46760 50.05322 17 ft 1 kts 229°
2026-05-04 22:38 40.46758 50.05318 16 ft 0 kts 229°
2026-05-04 22:38 40.46756 50.05316 16 ft 0 kts 229°
2026-05-04 22:39 40.46755 50.05313 16 ft 0 kts 229°